Location: Audinghen
(50.8518°N, 1.6129°E)
Time: 10:07:12
(UTC+00:00)

CZ-2D R/B - Pass Details

Date: 07 August 2020
Orbit: 792 x 845 km, 98.7° (Epoch: 20 September)

Event Time Altitude Azimuth Distance (km) Brightness Sun altitude
Rises 03:49:06 0° 4° (N) 3,407 6.0 -6.2°
Reaches altitude 10° 03:52:37 10° 341° (NNW) 2,474 4.9 -5.8°
Maximum altitude 03:55:19 14° 311° (NW) 2,199 4.2 -5.4°
Drops below altitude 10° 03:58:01 10° 281° (W) 2,472 4.2 -5.1°
Enters shadow 04:00:41 - 262° (W) 3,144 4.6 -4.7°
